CAPE
0 0 0 0 0 0 0 0 0 0 0 0 99 130 18 4 22 66 24 27 347 1777 2233 2016 1935 1693 1104 1022 998 884 961 984 1086 1039 1052 1077 1143 945 850 922 784 289 102 75 22 5 5 83 293
0 0 0 0 0 0 0 0 0 0 0 0 154 124 30 19 653 149 12 0 1689 1723 2072 1822 1923 1646 1132 959 957 871 979 1019 1122 1066 826 755 901 853 635 874 681 177 102 80 165 299 347 335 160
0 0 0 0 0 0 0 0 0 0 0 0 450 295 299 135 636 106 264 436 1666 1669 1921 1814 1906 1534 1167 1023 1003 929 1011 1060 1224 1001 726 671 672 882 957 895 734 245 119 185 288 338 291 171 61
0 0 0 0 0 0 0 0 0 0 0 0 392 725 810 479 649 337 860 1678 1307 1611 1762 2078 1794 1465 1118 1158 1127 1016 1085 1180 1290 1027 787 699 598 757 856 830 792 687 453 439 383 283 179 134 220
0 0 0 0 0 0 0 0 0 0 0 0 0 953 690 216 125 689 1426 1177 1220 1464 1737 1751 1632 1393 1198 1275 1195 1116 1232 1269 1268 1025 714 582 574 745 815 875 809 758 690 579 441 282 316 364 494
0 0 0 0 0 0 0 0 0 0 0 0 529 1112 817 536 1534 1333 1032 1154 1176 1199 1147 1429 1531 1260 1137 1221 1194 1152 1175 1245 1164 1004 885 665 653 766 840 983 1088 1134 1023 840 625 735 556 365 302
0 0 0 0 0 0 0 0 0 0 0 0 825 1485 1300 1296 1411 1060 1163 1155 1091 1042 940 1144 1057 1064 1200 1178 1126 1100 1108 1118 1036 903 797 812 869 974 977 1049 1120 1105 952 676 552 405 247 229 273
0 0 0 0 0 0 0 0 0 0 0 0 25 1227 1429 1575 1338 1050 930 946 1064 1041 676 580 891 821 716 801 1079 1039 1063 1042 876 791 746 839 941 936 969 814 897 985 761 515 341 241 260 196 157
0 0 0 0 0 0 0 0 0 0 0 0 0 1126 1396 1411 833 919 715 768 766 660 570 724 838 686 480 371 651 957 855 785 750 654 671 554 292 401 379 456 473 748 570 325 265 195 137 172 222
0 0 0 0 0 0 0 0 0 0 0 0 92 1132 1523 1071 792 613 620 533 529 562 442 510 331 350 314 294 403 284 189 223 146 110 162 22 0 0 0 24 429 280 370 304 193 163 291 331 0
0 0 0 0 0 0 0 0 0 0 0 0 18 590 1342 805 614 539 502 392 388 532 621 473 326 292 163 252 122 79 18 14 10 6 7 0 0 0 0 0 0 11 32 0 0 0 0 0 0
0 0 0 0 0 0 0 0 0 0 0 0 0 0 36 949 499 394 325 202 184 326 387 369 206 200 89 111 19 17 2 0 0 0 0 0 0 0 0 0 0 0 0 0 0 7 388 346 84
0 0 0 0 0 0 0 0 0 0 0 0 0 0 5 981 588 374 233 96 33 59 55 111 41 42 7 3 0 0 0 0 0 0 0 0 0 0 0 0 0 0 0 0 79 356 187 114 32
0 0 0 0 0 0 0 0 0 0 0 0 0 0 0 398 861 426 122 70 24 9 0 0 2 0 0 0 0 0 0 0 0 0 1 0 0 0 0 0 0 0 0 63 268 200 18 2 7
0 0 0 0 0 0 0 0 0 0 0 0 0 0 0 0 763 471 114 60 22 2 0 0 0 0 0 0 0 0 0 0 0 0 0 8 0 0 0 0 95 242 174 33 1 0 0 0 4
0 0 0 0 0 0 0 0 0 0 0 0 0 0 0 293 699 662 254 87 6 0 0 0 0 0 0 0 0 0 0 0 5 20 9 11 21 0 0 78 285 151 23 0 0 0 0 0 9
0 0 0 0 0 0 0 0 0 0 0 0 0 0 0 0 12 367 462 352 34 3 0 0 0 0 0 0 2 0 1 1 15 60 51 54 55 261 507 375 178 7 0 0 1 0 0 0 0
0 0 0 0 0 0 0 0 0 0 0 0 0 0 0 0 0 31 203 264 305 12 0 75 0 0 0 21 220 146 255 274 217 74 41 7 187 369 163 12 12 0 0 0 0 0 0 0 0
0 0 0 0 0 0 0 0 0 0 0 0 0 0 0 0 0 7 142 476 623 98 124 487 0 465 413 419 595 433 207 596 555 535 484 426 303 298 34 0 0 0 0 0 0 0 0 0 0
0 0 0 0 0 64 0 0 0 0 0 0 0 0 0 0 2 0 0 770 667 50 269 794 374 762 724 571 506 330 665 355 322 133 41 19 0 3 0 0 0 0 0 0 0 0 0 0 0
0 0 0 0 0 12 0 0 0 0 0 0 0 0 0 33 13 233 64 0 0 0 2 659 851 690 660 776 250 498 319 211 68 0 0 0 0 0 0 0 0 0 0 0 0 0 0 0 0
0 0 0 0 1 0 0 0 0 0 0 0 0 0 0 438 634 576 390 34 0 0 16 0 147 729 822 754 545 661 513 253 4 0 0 0 0 0 0 0 0 0 0 0 0 0 0 0 0
0 19 0 0 0 0 0 0 0 0 0 0 0 0 0 192 896 887 697 50 32 0 0 5 0 759 1081 629 568 677 410 30 0 0 0 0 0 0 0 0 0 0 0 0 0 0 0 0 0
4 0 0 0 0 0 0 0 0 0 0 0 0 0 0 281 550 670 554 327 14 7 0 1 1 3 1040 777 502 440 61 0 0 0 0 0 0 0 0 0 0 0 0 0 0 0 0 0 0
1 0 0 0 0 0 0 0 0 0 0 0 0 0 0 200 526 408 243 99 379 274 0 0 0 0 880 1047 242 76 3 0 0 0 0 0 0 0 0 0 0 0 0 0 0 0 0 0 0
0 0 0 0 2 0 0 0 0 0 0 0 0 0 0 224 948 520 195 77 469 216 376 0 0 109 1355 945 254 33 0 0 0 0 0 0 0 0 0 0 0 0 0 0 0 0 0 0 0
12 0 0 2 8 0 0 0 0 0 0 0 0 0 0 398 1471 1239 822 509 1229 1193 1098 980 888 1108 1426 592 209 32 0 0 0 0 0 0 0 0 0 0 0 0 0 0 0 0 0 0 0
9 0 0 0 1 0 0 0 0 0 1 0 0 0 0 220 1580 1498 1468 1279 1337 1467 1413 1380 1304 1171 856 561 251 28 0 0 0 0 0 0 0 0 0 0 0 0 0 0 0 0 0 0 0
0 4 0 0 2 23 0 0 0 0 0 0 0 0 0 609 1459 1413 1439 1380 1454 1512 1255 1194 1107 785 362 20 0 0 0 0 0 0 0 0 0 0 0 0 0 0 0 0 0 0 0 0 0
0 0 0 0 0 0 0 0 0 0 0 0 0 0 0 146 1463 1496 1469 1276 1452 1164 970 1145 895 370 0 0 0 0 0 0 0 0 0 0 0 0 0 0 0 0 0 0 0 0 0 0 0
CIN
-0 -0 -0 -0 -0 -0 -0 -0 -0 -0 -0 -0 -182 -256 -233 -316 -345 -350 -459 -317 -183 -51 -29 -63 -66 -82 -109 -177 -237 -252 -206 -182 -148 -159 -167 -149 -126 -138 -154 -137 -163 -272 -344 -348 -371 -101 -53 -257 -187
-0 -0 -0 -0 -0 -0 -0 -0 -0 -0 -0 -0 -220 -216 -242 -108 -275 -481 -609 -0 -129 -93 -56 -85 -75 -88 -114 -157 -209 -263 -237 -185 -147 -148 -194 -200 -166 -162 -200 -151 -177 -307 -332 -321 -262 -209 -189 -191 -239
-0 -0 -0 -0 -0 -0 -0 -0 -0 -0 -0 -0 -111 -142 -144 -259 -315 -606 -502 -573 -279 -191 -109 -96 -83 -107 -159 -147 -170 -231 -223 -190 -142 -161 -193 -210 -205 -163 -125 -140 -165 -278 -310 -281 -249 -225 -233 -261 -293
-0 -0 -0 -0 -0 -0 -0 -0 -0 -0 -0 -0 -35 -22 -78 -180 -347 -467 -394 -232 -234 -238 -181 -104 -111 -144 -183 -151 -159 -197 -203 -175 -139 -165 -178 -198 -216 -185 -146 -132 -150 -169 -211 -215 -238 -264 -282 -288 -255
-0 -0 -0 -0 -0 -0 -0 -0 -0 -0 -0 -0 -0 -20 -99 -220 -437 -413 -372 -319 -279 -211 -98 -160 -155 -181 -173 -142 -165 -177 -177 -179 -155 -168 -218 -221 -215 -192 -171 -134 -132 -155 -177 -195 -238 -249 -230 -211 -171
-0 -0 -0 -0 -0 -0 -0 -0 -0 -0 -0 -0 -89 -51 -111 -305 -328 -351 -380 -331 -305 -259 -166 -189 -157 -202 -202 -166 -161 -168 -180 -194 -194 -185 -198 -222 -197 -164 -154 -126 -82 -86 -109 -164 -173 -136 -157 -193 -202
-0 -0 -0 -0 -0 -0 -0 -0 -0 -0 -0 -0 -44 -45 -171 -194 -295 -279 -329 -317 -311 -286 -277 -193 -221 -201 -211 -183 -173 -172 -180 -193 -217 -233 -219 -204 -165 -129 -119 -116 -92 -92 -123 -166 -187 -197 -209 -222 -216
-0 -0 -0 -0 -0 -0 -0 -0 -0 -0 -0 -0 -1 -48 -105 -190 -293 -317 -243 -288 -275 -275 -349 -314 -221 -222 -279 -262 -201 -189 -185 -196 -244 -265 -275 -220 -158 -155 -127 -166 -138 -94 -131 -190 -217 -230 -203 -218 -228
-0 -0 -0 -0 -0 -0 -0 -0 -0 -0 -0 -0 -0 -66 -146 -168 -293 -321 -286 -292 -291 -313 -346 -275 -224 -248 -323 -367 -300 -223 -233 -243 -254 -280 -286 -310 -366 -312 -318 -267 -240 -162 -141 -210 -233 -226 -247 -224 -193
-0 -0 -0 -0 -0 -0 -0 -0 -0 -0 -0 -0 -220 -113 -190 -266 -305 -378 -329 -337 -370 -356 -379 -341 -398 -377 -347 -371 -350 -412 -436 -418 -467 -491 -454 -625 -0 -0 -0 -463 -240 -257 -196 -202 -234 -218 -180 -184 -0
-0 -0 -0 -0 -0 -0 -0 -0 -0 -0 -0 -0 -24 -98 -139 -219 -251 -378 -392 -436 -490 -393 -356 -386 -419 -383 -415 -383 -492 -539 -607 -638 -684 -686 -696 -0 -0 -0 -0 -0 -0 -489 -61 -0 -0 -0 -0 -0 -36
-0 -0 -0 -0 -0 -0 -0 -0 -0 -0 -0 -0 -0 -0 -116 -178 -301 -370 -430 -479 -531 -461 -421 -427 -469 -442 -492 -500 -669 -699 -682 -0 -0 -0 -0 -0 -0 -0 -0 -0 -0 -0 -0 -0 -0 -29 -92 -91 -112
-0 -0 -0 -0 -0 -0 -0 -0 -0 -0 -0 -0 -0 -0 -3 -112 -284 -395 -478 -490 -576 -580 -561 -557 -600 -584 -540 -455 -361 -0 -0 -0 -0 -0 -0 -0 -0 -0 -0 -0 -0 -0 -0 -0 -243 -113 -140 -135 -209
-0 -0 -0 -0 -0 -0 -0 -0 -0 -0 -0 -0 -0 -0 -0 -103 -212 -331 -441 -494 -608 -656 -69 -0 -241 -0 -0 -0 -0 -0 -0 -0 -0 -0 -456 -0 -0 -0 -0 -0 -0 -0 -21 -384 -182 -159 -271 -87 -144
-0 -0 -0 -0 -0 -0 -0 -0 -0 -0 -0 -0 -0 -0 -0 -0 -68 -274 -429 -506 -598 -367 -0 -0 -0 -0 -0 -0 -0 -0 -0 -0 -0 -194 -0 -577 -0 -0 -0 -0 -363 -269 -275 -424 -33 -0 -0 -0 -116
-0 -0 -0 -0 -0 -0 -0 -0 -0 -0 -0 -0 -0 -0 -0 -52 -83 -142 -275 -415 -344 -0 -0 -0 -0 -0 -0 -0 -0 -0 -0 -0 -548 -528 -608 -551 -558 -0 -0 -401 -252 -298 -414 -0 -0 -0 -0 -0 -169
-0 -0 -0 -0 -0 -0 -0 -0 -0 -0 -0 -0 -0 -0 -0 -0 -258 -226 -195 -296 -446 -126 -0 -0 -0 -0 -0 -0 -153 -0 -205 -408 -426 -416 -452 -499 -431 -320 -179 -205 -309 -327 -0 -0 -251 -0 -0 -0 -0
-0 -0 -0 -0 -0 -0 -0 -0 -0 -0 -0 -0 -0 -0 -0 -0 -0 -159 -333 -362 -352 -304 -0 -350 -0 -0 -0 -333 -271 -288 -233 -243 -268 -371 -409 -594 -314 -230 -297 -584 -516 -0 -0 -0 -0 -0 -0 -0 -0
-0 -0 -0 -0 -0 -0 -0 -0 -0 -0 -0 -0 -0 -0 -0 -0 -0 -105 -251 -276 -252 -385 -383 -225 -0 -266 -275 -237 -160 -177 -294 -181 -185 -240 -229 -207 -261 -244 -470 -585 -1 -0 -0 -0 -0 -0 -0 -0 -0
-0 -0 -0 -0 -0 -82 -0 -0 -0 -0 -0 -0 -0 -0 -0 -0 -68 -0 -0 -191 -220 -254 -220 -67 -241 -179 -156 -148 -171 -258 -205 -327 -342 -393 -446 -329 -0 -380 -0 -0 -0 -0 -0 -0 -0 -0 -0 -0 -0
-0 -0 -0 -0 -0 -47 -0 -0 -0 -0 -0 -0 -0 -0 -0 -311 -263 -246 -286 -0 -0 -0 -104 -26 -116 -154 -159 -121 -320 -229 -338 -416 -498 -0 -0 -0 -0 -0 -0 -0 -0 -0 -0 -0 -0 -0 -0 -0 -0
-0 -0 -0 -0 -15 -0 -0 -0 -0 -0 -0 -0 -0 -0 -0 -142 -107 -163 -271 -530 -0 -0 -326 -0 -38 -104 -137 -155 -200 -230 -231 -352 -110 -0 -0 -0 -0 -0 -0 -0 -0 -0 -0 -0 -0 -0 -0 -0 -0
-0 -19 -0 -0 -0 -0 -0 -0 -0 -0 -0 -0 -0 -0 -0 -198 -108 -112 -228 -439 -551 -0 -0 -418 -0 -44 -84 -148 -139 -164 -259 -556 -0 -0 -0 -0 -0 -0 -0 -0 -0 -0 -0 -0 -0 -0 -0 -0 -0
-22 -0 -0 -0 -0 -0 -0 -0 -0 -0 -0 -0 -0 -0 -0 -137 -187 -148 -238 -255 -498 -74 -0 -437 -324 -0 -81 -155 -199 -266 -541 -0 -0 -0 -0 -0 -0 -0 -0 -0 -0 -0 -0 -0 -0 -0 -0 -0 -0
-9 -0 -0 -0 -0 -0 -0 -0 -0 -0 -0 -0 -0 -0 -0 -154 -209 -185 -325 -322 -197 -283 -0 -0 -0 -0 -42 -128 -276 -396 -624 -0 -0 -0 -0 -0 -0 -0 -0 -0 -0 -0 -0 -0 -0 -0 -0 -0 -0
-86 -0 -0 -0 -20 -2 -0 -0 -0 -0 -0 -0 -0 -0 -0 -120 -140 -155 -357 -341 -191 -285 -142 -0 -0 -32 -40 -109 -283 -412 -0 -0 -0 -0 -0 -0 -0 -0 -0 -0 -0 -0 -0 -0 -0 -0 -0 -0 -0
-90 -0 -0 -22 -45 -0 -0 -0 -20 -0 -12 -0 -0 -0 -0 -100 -66 -91 -174 -261 -116 -115 -12 -60 -0 -1 -25 -166 -324 -457 -0 -0 -0 -0 -0 -0 -0 -0 -0 -0 -0 -0 -0 -0 -0 -0 -0 -0 -0
-84 -0 -16 -0 -7 -1 -0 -0 -0 -0 -54 -0 -0 -0 -0 -178 -77 -99 -104 -107 -136 -136 -44 -44 -42 -49 -94 -142 -281 -275 -0 -0 -0 -0 -0 -0 -0 -0 -0 -0 -0 -0 -0 -0 -0 -0 -0 -0 -0
-0 -105 -0 -15 -13 -10 -0 -0 -0 -0 -0 -0 -0 -0 -0 -145 -83 -123 -106 -139 -145 -118 -106 -66 -62 -96 -194 -142 -0 -0 -0 -0 -0 -0 -0 -0 -0 -0 -0 -0 -0 -0 -0 -0 -0 -0 -0 -0 -0
-0 -0 -0 -0 -0 -0 -0 -0 -0 -0 -0 -0 -0 -0 -0 -148 -90 -132 -142 -147 -90 -94 -108 -68 -74 -188 -29 -0 -0 -0 -0 -0 -0 -0 -0 -0 -0 -0 -0 -0 -0 -0 -0 -0 -0 -0 -0 -0 -0
Wind_Speed
8 8 1 4 4 5 5 9 3 9 2 3 10 7 7 7 9 7 18 20 17 17 12 14 17 17 16 18 21 20 19 17 15 14 15 14 14 14 14 12 12 13 12 11 9 8 6 6 5
4 5 4 2 5 2 7 4 16 15 6 5 3 6 4 4 9 17 14 32 24 19 14 15 20 19 17 18 19 20 20 17 15 14 14 14 13 13 12 11 11 12 11 10 9 7 5 4 1
4 2 4 5 5 8 7 6 12 3 9 2 3 2 1 4 16 25 13 21 30 22 16 16 21 20 19 18 18 19 19 17 15 15 13 13 12 11 9 10 10 11 10 9 8 6 4 3 3
2 4 4 2 9 8 7 8 9 3 9 4 9 2 7 1 21 18 18 22 19 17 19 22 23 21 21 20 19 19 19 18 16 15 14 12 11 10 9 8 8 9 9 8 6 6 5 4 5
3 3 1 4 8 7 8 9 11 10 8 14 11 8 10 3 10 17 26 22 19 16 13 19 24 23 22 21 20 19 19 18 16 15 14 12 11 9 9 8 7 8 8 7 7 6 5 6 7
4 3 1 7 9 5 8 10 8 8 8 14 5 7 3 15 21 21 21 21 19 18 14 15 21 24 22 20 19 19 18 18 16 14 13 12 10 8 8 8 7 7 7 8 6 6 6 7 8
4 3 4 4 6 7 7 5 6 7 7 14 5 5 1 8 19 15 17 18 18 17 16 11 14 18 23 21 19 18 17 16 15 14 12 12 11 9 8 8 8 8 7 6 6 7 8 8 10
3 4 3 3 2 9 8 5 5 6 17 16 10 10 10 15 21 17 12 15 15 14 16 14 11 12 13 14 20 18 16 16 15 14 14 13 11 10 9 9 9 8 7 7 8 8 9 10 11
4 2 4 6 3 7 18 7 10 11 7 16 12 9 19 18 18 19 14 13 13 12 14 13 14 11 10 11 13 17 19 17 15 13 13 10 5 6 8 8 9 8 8 9 9 8 10 10 11
5 4 8 5 6 13 22 8 15 14 14 13 20 18 31 34 23 25 19 16 17 18 17 16 16 13 8 9 10 6 9 7 6 6 6 4 5 5 6 7 10 8 8 11 9 8 10 8 4
5 6 7 14 13 13 21 17 13 11 8 9 7 2 29 27 21 22 21 18 18 17 14 14 13 12 11 7 5 4 3 4 4 6 6 5 4 3 2 2 2 2 6 3 4 5 3 3 1
4 7 10 14 14 12 16 13 17 10 8 9 8 7 18 27 25 24 21 20 22 19 16 16 14 13 10 8 6 6 5 4 4 5 6 4 3 4 4 4 2 3 2 2 2 2 2 5 3
3 4 8 8 10 12 16 18 15 13 9 10 11 4 16 22 26 25 24 19 20 21 20 18 16 13 9 9 6 5 6 6 5 5 6 4 4 4 3 4 3 3 2 2 2 3 3 4 5
6 10 13 8 10 7 7 11 5 17 8 13 11 5 10 23 25 21 22 19 21 19 20 19 17 13 12 10 9 7 4 5 4 4 5 7 4 3 4 3 3 3 3 3 3 4 4 3 4
8 8 11 6 6 7 4 13 18 7 6 10 11 13 10 19 18 24 27 25 23 19 18 19 17 13 13 12 10 7 7 6 5 5 6 6 6 5 5 4 4 4 3 6 5 5 4 5 5
6 3 5 7 10 9 4 15 26 7 6 18 11 16 5 16 14 8 18 19 19 19 18 17 14 14 13 11 9 7 6 6 5 4 4 6 6 6 5 4 4 4 4 4 4 4 3 4 4
6 3 9 8 11 9 6 13 27 3 7 17 11 12 8 6 5 2 8 9 14 18 19 18 15 14 12 7 7 5 6 5 4 4 4 6 6 6 5 4 4 4 5 4 4 4 3 3 4
6 6 6 11 6 11 14 17 24 15 10 16 13 13 8 4 7 8 11 9 6 8 8 13 14 14 11 7 5 4 4 3 3 4 4 5 5 6 7 5 5 5 5 4 4 4 5 3 3
8 5 11 15 12 1 13 18 20 15 10 14 14 10 8 8 9 10 5 14 11 8 8 14 16 15 12 7 5 4 5 4 5 7 8 7 6 7 7 5 6 5 5 4 4 3 4 5 3
7 8 9 10 14 4 15 23 22 19 14 13 18 12 8 6 5 11 7 12 13 10 3 6 15 13 11 9 3 4 5 5 7 7 8 7 9 7 7 6 6 5 5 6 6 4 2 4 5
7 8 8 11 11 7 10 20 16 18 10 9 15 14 6 9 8 13 13 11 14 16 6 13 16 13 10 10 8 7 8 6 5 6 6 6 9 9 7 7 6 6 5 5 4 4 5 3 4
10 7 10 12 6 8 7 10 13 11 17 7 11 13 10 9 8 10 15 12 17 14 13 18 11 16 12 13 11 15 8 9 3 5 6 6 8 9 7 7 7 6 4 6 4 4 4 4 3
11 12 14 8 5 3 12 5 9 4 13 16 8 12 12 14 15 15 16 18 19 22 34 22 12 11 12 12 12 9 9 10 8 7 10 8 7 8 7 7 7 7 5 5 6 6 7 4 4
9 5 5 4 2 7 11 7 12 5 11 10 8 10 14 12 14 19 16 16 17 18 18 20 10 16 10 12 13 16 17 13 10 8 8 6 5 4 5 7 6 6 6 6 5 6 7 6 5
7 4 4 5 3 5 2 2 17 7 14 16 13 10 11 16 15 16 17 18 17 17 14 10 9 13 10 13 14 16 16 15 15 11 9 10 5 3 5 6 6 4 5 6 6 7 6 5 5
2 6 6 6 2 4 10 8 8 8 18 18 13 10 9 12 18 19 23 22 23 25 18 21 25 30 10 15 15 14 15 10 9 10 9 7 5 4 5 6 6 7 6 6 6 4 4 5 6
1 3 5 2 1 2 5 8 8 12 15 14 14 13 9 12 18 21 21 22 20 21 22 25 25 24 15 16 15 15 14 15 13 12 9 7 6 5 6 7 7 6 7 7 6 4 4 6 6
6 4 2 2 4 5 6 5 3 15 21 22 21 21 16 13 15 17 19 21 18 19 19 19 16 17 16 17 15 13 13 14 14 13 11 9 7 7 7 6 7 7 6 6 7 5 4 6 4
1 2 3 3 3 4 4 5 5 8 10 20 25 26 23 14 15 16 16 18 19 18 15 17 18 20 17 16 15 16 13 15 13 12 11 10 8 8 7 7 7 7 6 5 6 6 6 7 7
3 5 6 4 7 5 4 8 7 12 10 17 22 22 21 19 18 17 17 17 15 15 17 16 17 17 17 18 17 18 16 14 13 12 10 10 9 7 7 7 7 6 6 6 6 6 6 7 6
Wind_Direction
330 309 319 32 68 68 247 248 255 265 285 212 138 148 199 140 165 197 159 208 261 175 180 159 155 147 143 134 127 123 119 119 120 117 115 112 110 109 109 112 115 115 116 116 112 105 102 89 67
327 315 41 78 108 176 258 228 253 242 237 48 242 106 224 158 103 149 172 186 184 166 169 162 155 149 144 138 132 129 127 128 128 123 121 121 119 118 122 122 121 121 122 121 119 119 118 117 121
298 206 94 145 168 195 230 230 250 347 255 173 43 264 62 180 125 160 242 173 159 160 163 164 154 149 144 142 138 133 132 134 135 133 133 131 128 124 128 127 126 126 129 129 132 144 162 179 239
339 15 5 155 223 250 216 274 272 28 314 233 135 292 330 104 160 180 148 148 150 150 158 157 152 148 147 147 143 140 139 140 142 141 141 139 135 132 130 132 135 137 138 139 158 177 199 228 254
41 66 249 246 252 265 262 263 278 286 285 276 306 174 166 291 125 145 141 146 148 147 164 153 150 147 150 150 148 147 145 143 145 146 145 144 143 143 140 145 151 150 154 165 191 211 231 256 280
15 93 74 244 258 270 285 260 280 277 251 280 274 140 190 132 135 148 144 144 146 145 157 150 150 150 150 152 152 151 150 147 148 150 145 145 148 151 151 159 170 173 178 190 216 241 259 279 290
124 85 232 247 272 294 264 299 282 285 276 290 224 147 248 146 136 141 136 135 138 142 142 149 151 155 151 153 154 154 153 151 149 147 146 148 152 161 170 174 187 198 202 222 238 262 281 284 280
121 99 277 276 277 285 272 317 314 326 320 331 258 177 181 159 144 125 134 128 132 142 140 151 153 155 151 157 156 158 156 154 152 153 153 155 158 171 183 190 203 220 229 240 256 269 279 283 285
109 29 274 256 295 269 294 331 322 301 311 324 307 152 137 143 127 125 131 135 138 145 147 150 155 156 156 160 164 159 159 157 155 157 160 155 164 187 194 206 218 219 245 253 257 273 284 295 311
128 157 239 225 271 280 283 303 309 330 341 331 332 131 148 150 152 146 155 157 155 157 156 160 158 153 160 164 158 153 161 156 152 162 159 154 173 202 202 214 230 227 244 261 279 311 292 302 291
221 224 232 265 259 264 280 289 288 286 309 301 355 7 147 151 167 159 155 165 160 158 159 163 155 155 165 161 158 155 144 152 161 164 151 171 174 215 223 234 232 210 250 298 359 314 302 270 299
307 253 240 259 260 263 268 280 277 256 265 266 259 196 270 167 166 161 155 165 161 161 164 162 160 163 169 156 169 163 157 166 175 175 164 171 178 216 212 231 189 210 245 237 280 281 340 31 47
227 303 308 281 275 264 270 268 272 265 264 269 276 171 259 189 175 165 162 160 158 163 165 166 162 168 159 162 166 172 168 178 189 170 170 176 188 220 177 228 213 176 192 155 143 215 68 47 24
308 310 301 299 294 273 285 294 313 271 297 287 281 273 130 252 173 161 154 164 168 163 166 163 164 165 163 167 168 178 170 180 179 179 178 189 190 187 185 155 123 123 121 160 117 75 50 32 19
303 307 315 307 291 280 340 306 278 312 312 296 291 293 111 299 210 172 165 168 168 167 163 164 162 160 166 170 172 181 188 174 179 191 191 170 179 161 130 158 122 129 143 92 71 51 37 28 5
300 318 332 321 317 294 121 275 274 299 299 290 299 301 339 173 227 189 175 168 167 155 162 160 163 164 171 172 180 186 183 177 187 181 178 172 148 139 112 104 90 82 78 81 74 53 26 22 24
10 298 314 322 333 332 333 284 280 305 240 276 282 291 303 99 299 284 135 149 166 163 157 160 162 169 172 166 178 169 172 174 181 154 156 144 132 105 102 102 100 99 80 68 68 59 50 24 9
240 272 261 274 295 333 309 288 289 310 253 263 271 274 288 229 187 273 130 105 99 131 143 161 158 169 169 157 153 126 130 134 120 111 101 112 102 107 104 95 95 84 83 63 63 79 52 58 44
215 233 261 282 271 234 282 285 287 304 269 257 263 262 267 236 174 194 259 136 105 121 178 163 164 169 161 156 142 128 125 108 95 86 80 85 94 92 101 92 91 79 82 80 57 76 69 29 36
213 234 260 276 260 179 309 297 288 288 273 246 257 249 242 247 239 138 198 148 120 89 332 191 173 168 158 152 136 116 114 87 104 91 79 82 82 85 82 95 90 89 91 63 52 73 93 66 14
223 230 255 252 287 223 247 280 275 284 272 271 251 241 176 206 197 135 174 166 136 125 16 266 177 169 155 133 109 96 98 94 85 85 84 77 87 81 82 83 93 82 81 79 72 77 90 102 31
272 232 257 265 271 273 73 288 269 270 277 284 275 244 224 182 173 174 161 159 147 131 163 266 274 170 158 139 125 137 143 127 88 104 101 87 83 82 84 88 90 92 84 77 70 64 91 102 72
284 276 273 237 245 307 272 249 280 198 277 281 270 245 243 177 174 179 185 171 157 168 169 212 237 259 163 136 139 130 121 115 117 108 103 89 81 79 86 88 88 85 83 82 84 68 70 70 95
296 306 305 297 182 249 268 191 267 209 233 272 273 241 241 171 182 187 184 172 165 179 188 172 182 281 174 135 135 134 133 131 123 124 111 109 87 84 87 92 91 90 87 85 83 75 72 80 78
245 88 331 318 352 226 207 327 246 249 245 236 255 271 237 168 183 172 165 172 169 177 171 132 135 270 205 135 134 138 139 138 132 136 134 126 119 126 115 106 98 96 103 88 82 81 78 74 82
222 185 175 225 249 282 299 237 249 252 244 253 260 248 238 170 178 182 173 178 174 173 181 164 173 212 186 142 139 139 137 134 132 132 135 122 135 133 131 111 107 106 100 87 85 80 83 85 83
217 185 219 239 277 280 246 282 291 337 324 281 255 261 248 183 176 186 179 179 170 178 179 182 172 181 157 142 135 136 138 140 137 133 124 133 130 124 118 108 103 109 102 102 105 102 94 83 79
178 155 93 38 243 251 270 295 238 358 355 338 338 339 272 175 183 174 166 180 177 179 165 163 154 144 139 136 137 135 133 131 134 128 136 136 123 115 111 111 111 115 112 111 99 99 91 86 73
164 3 67 148 212 194 294 263 279 15 1 339 330 320 305 173 180 172 169 174 172 163 160 143 138 138 135 127 128 119 126 129 128 132 133 132 123 123 131 126 117 123 123 108 108 108 96 95 86
220 236 165 172 273 218 212 276 324 41 4 348 310 312 323 176 172 169 163 164 154 165 157 148 140 138 134 133 130 127 127 126 124 126 134 131 134 132 134 122 112 120 129 134 132 112 109 97 98